Flag for Switzerland Weather past 2 weeks in Küsnacht, Zurich, Switzerland

Now
41 °F

Quite cool.


Feels Like: 37 °F
Forecast: 34 / 62 °F
Wind: 5 mph from Northeast

Location: Zurich Town / Ville.

Current Time: Apr 19, 2015 at 1:55:31 AM

Latest Report: Apr 19, 2015 at 1:00 AM


Visibility: N/A

Pressure: 30.14 "Hg

Humidity: 59%

Dew point: 27 °F

Location of KüsnachtLocation

Historic Weather in Küsnacht — Graph

°F

Küsnacht temperature yesterday

Maximum temperature yesterday: 54 °F (at 4:00 PM)
Minimum temperature yesterday: 41 °F (at 11:00 PM)
Average temperature yesterday: 46 °F

Past Weeks' High & Low Weather Summary

 TemperatureHumidityPressure
High72 °F (Apr 15, 5:00 PM)97% (Apr 4, 4:00 AM)30.61 "Hg (Apr 4, 4:00 AM)
Low30 °F (Apr 6, 7:00 AM)19% (Apr 8, 6:00 PM)29.85 "Hg (Apr 4, 5:00 PM)
Average50 °F59%30.25 "Hg
* Reported Midnight between Apr 3 and Apr 4 — Midnight between Apr 18 and Apr 19, Küsnacht, Weather by CustomWeather, © 2015

Note: Actual official high and low records may vary slightly from our data, if they occured in-between our weather recording intervals... More about our weather records

Advertising

Küsnacht weather history for previous 24 hours

 ConditionsComfort  
Time TempWeatherWind HumidityBarometerVisibility
12:00 AM
Sun, Apr 19
41 °FQuite cool.5 mph58%30.15 "HgN/A
11:00 PM
Sat, Apr 18
41 °FQuite cool.5 mph61%30.17 "HgN/A
10:00 PM43 °FQuite cool.3 mph56%30.18 "HgN/A
9:00 PM45 °FQuite cool.5 mph50%30.17 "HgN/A
8:00 PM47 °FCool.6 mph46%30.16 "HgN/A
7:00 PM50 °FCool.8 mph43%30.15 "HgN/A
6:00 PM51 °FCool.7 mph42%30.14 "HgN/A
5:00 PM52 °FCool.9 mph41%30.14 "HgN/A
4:00 PM54 °FCool.9 mph42%30.14 "HgN/A
3:00 PM53 °FCool.9 mph40%30.16 "HgN/A
2:00 PM50 °FCool.8 mph48%30.17 "HgN/A
1:00 PM50 °FCool.10 mph53%30.17 "HgN/A
12:00 PM47 °FCool.9 mph58%30.19 "HgN/A
11:00 AM47 °FCool.7 mph66%30.18 "HgN/A
10:00 AM43 °FQuite cool.7 mph78%30.17 "HgN/A
9:00 AM42 °FQuite cool.8 mph85%30.16 "HgN/A
8:00 AM42 °FOvercast.6 mph89%30.16 "HgN/A
7:00 AM41 °FQuite cool.9 mph93%30.14 "HgN/A
6:00 AM42 °FQuite cool.12 mph93%30.12 "HgN/A
4:00 AM44 °FQuite cool.8 mph92%30.09 "HgN/A
3:00 AM44 °FQuite cool.6 mph93%30.09 "HgN/A
2:00 AM44 °FQuite cool.13 mph93%30.09 "HgN/A
1:00 AM49 °FCool.1 mph96%30.06 "HgN/A
Weather by CustomWeather, © 2015

See weather overviewHow to use our weather pages